Regional Weather Roundup
Issued by NWS

Home | Current Version | Previous Version | Graphics & Text | Print | Product List | Glossary Off
Versions: 1 2 3 4 5 6 7 8 9 10 11 12 13 14 15 16 17 18 19 20 21 22 23 24 25 26 27 28 29 30 31 32 33 34 35 36 37 38 39 40 41 42 43 44 45 46 47 48 49 50

000
ASUS43 KDMX 030108
RWRIA

WEATHER ROUNDUP FOR IOWA
NATIONAL WEATHER SERVICE DES MOINES IA
800 PM CDT MON MAY 02 2016

NOTE: "FAIR" INDICATES FEW OR NO CLOUDS BELOW 12,000 FEET WITH NO
SIGNIFICANT WEATHER AND/OR OBSTRUCTIONS TO VISIBILITY.

* - THESE STATIONS ARE NOT NWS STATIONS...THUS NOT UNDER NWS
QUALITY CONTROL.  THEY ALSO DO NOT REPORT WEATHER SUCH
AS PRECIPITATION OR FOG.

IAZ001>003-012>014-020>022-031>034-043>046-030200-
   NORTHWEST IOWA

CITY           SKY/WX    TMP DP  RH WIND       PRES   REMARKS
CARROLL *      CLEAR     57  48  72 S5        30.04S
CHEROKEE *     PTCLDY    55  41  58 CALM      30.03S
DENISON *      CLEAR     59  39  47 CALM      30.02S
LE MARS *      CLEAR     59  39  47 CALM      30.03F
ORANGE CITY *  CLEAR     57  43  58 SW5       30.02F
SHELDON *      CLEAR     57  37  47 SW5       30.01S
SIOUX CITY     CLEAR     60  44  55 S5        30.03S
SPENCER        CLEAR     58  42  55 CALM      30.02F
STORM LAKE *   CLEAR     57  41  54 SW3       30.04S
$$

IAZ055>058-069>071-079>083-090>094-030200-
   SOUTHWEST IOWA

CITY           SKY/WX    TMP DP  RH WIND       PRES   REMARKS
ATLANTIC *     CLEAR     59  45  58 CALM      30.04S
AUDUBON *      CLEAR     57  46  67 CALM      30.05S
CLARINDA *       N/A    N/A N/A N/A MISG        N/A
COUNCIL BLFS * CLEAR     59  37  44 W3        30.05R
CRESTON *      CLOUDY    59  46  63 CALM      30.06S
HARLAN  *      CLEAR     59  41  51 CALM      30.07S
LAMONI         CLEAR     55  42  61 E5        30.05S
SHENANDOAH *   PTCLDY    59  46  63 SE5       30.06S
$$

IAZ047>049-059>061-072>074-084-030200-
   CENTRAL IOWA

CITY           SKY/WX    TMP DP  RH WIND       PRES   REMARKS
AMES           PTCLDY    54  44  69 S5        30.04S
ANKENY *       PTCLDY    54  46  76 CALM      30.04S
BOONE *        PTCLDY    55  46  71 E5        30.03S
CHARITON *     CLOUDY    57  45  62 CALM      30.05S
DES MOINES     PTCLDY    57  42  57 SE6       30.05R
GRINNELL*      MOCLDY    54  45  71 SE5       30.06R
KNOXVILLE *    CLOUDY    55  43  62 CALM      30.04S
MARSHALLTOWN   MOCLDY    55  43  63 SE3       30.04R
NEWTON *       CLOUDY    54  48  82 CALM      30.05S
$$

IAZ004>006-015-016-023>025-035-036-030200-
   NORTH CENTRAL IOWA

CITY           SKY/WX    TMP DP  RH WIND       PRES   REMARKS
ALGONA *       CLEAR     59  43  55 S6        30.03S
CLARION *      CLEAR     59  41  51 SW3       30.03F
ESTHERVILLE    CLEAR     58  43  57 SW3       30.02S
FORT DODGE *   CLEAR     57  39  51 CALM      30.04S
MASON CITY     CLEAR     57  41  55 S5        30.04S
FOREST CITY *  PTCLDY    54  43  66 S7        30.03S
WEBSTER CITY * PTCLDY    59  45  58 SE5       30.02S
IOWA FALLS *   MOCLDY    55  46  71 S5        30.05S
$$

IAZ007>011-017>019-026>030-037>042-050>054-066-030200-
   NORTHEAST IOWA

CITY           SKY/WX    TMP DP  RH WIND       PRES   REMARKS
CEDAR RAPIDS   CLOUDY    54  48  80 SW3       30.03S
CHARLES CITY * PTCLDY    57  43  58 S3        30.04S
CLINTON *      CLOUDY    55  46  71 W3        30.04R
DECORAH *      CLOUDY    59  37  44 CALM      30.02S
DUBUQUE        CLOUDY    55  42  61 SW3       30.03S
MONTICELLO *   CLOUDY    55  43  62 W3        30.03S
OELWEIN *      MOCLDY    55  45  67 SW6       30.04S
WATERLOO       CLOUDY    56  40  55 SW6       30.03S
$$

IAZ064-065-067-068-078-030200-
   EAST CENTRAL IOWA

CITY           SKY/WX    TMP DP  RH WIND       PRES   REMARKS
DAVENPORT      CLOUDY    56  43  61 CALM      30.04R
IOWA CITY      CLOUDY    53  46  77 W3        30.05S
MT. PLEASANT * CLOUDY    55  50  82 W3        30.04F
MUSCATINE *    CLOUDY    55  50  82 CALM      30.04S
QUAD CITIES    CLOUDY    56  45  66 CALM      30.03R
$$

IAZ062-063-075>077-085>089-095>099-030200-
   SOUTHEAST IOWA

CITY           SKY/WX    TMP DP  RH WIND       PRES   REMARKS
BURLINGTON     CLOUDY    54  48  80 W3        30.03S
FAIRFIELD *    CLOUDY    54  46  76 SW3       30.05S
FORT MADISON * CLOUDY    54  46  76 CALM      30.05S
KEOKUK *       CLOUDY    54  46  76 CALM      30.03F
OSKALOOSA *    CLOUDY    54  43  66 CALM      30.06R
OTTUMWA        CLOUDY    53  46  77 E3        30.05S
WASHINGTON *   CLOUDY    52  52 100 SW5       30.06S
$$

ABBREVIATIONS USED IN REMARKS
   TC - TEMPERATURES IN CELSIUS
  WCI - WIND CHILL INDEX
   HX - HEAT INDEX
  VSB - VISIBILITY
$$





USA.gov is the U.S. government's official web portal to all federal, state and local government web resources and services.